This demonstration page uses our WeatherBlox Daily Observations layout. Learn more.

Left ArrowRight Arrow

41.86663, -103.66717

Hourly Observations for January 25, 2016

Temp ( °F °C ) Dew Point ( °F °C ) Humidity (%) Winds ( mph kmh ) Pressure ( in mb ) Visibility ( mi km ) Precip ( " mm )
12:11 am 00:11 Cloudy with Light Wintry Mix 34 1.1 32 undefined 92 92 NW 15 24 29.85 1011 8 13 N/A
12:25 am 00:25 Cloudy with Light Rain 35 1.7 32 undefined 89 89 NW 18 30 29.88 1012 8 13 N/A
12:53 am 00:53 Cloudy with Light Rain 35 1.7 32 undefined 89 89 NW 21 33 29.81 1010 9 14 0.01 0.25
1:26 am 01:26 Cloudy 36 2 30 -1 81 81 NW 21 33 29.88 1012 10 16 N/A
1:53 am 01:53 Cloudy 35 1.7 31 -0.6 85 85 NW 18 30 29.83 1010 10 16 N/A
2:53 am 02:53 Cloudy 35 1.7 30 -1.1 82 82 NW 18 30 29.85 1011 10 16 N/A
3:53 am 03:53 Cloudy 34 1.1 30 -1.1 85 85 NW 17 28 29.87 1012 10 16 N/A
4:23 am 04:23 Cloudy 35 1.7 29 -1.7 78 78 NW 22 35 29.91 1013 10 16 N/A
4:53 am 04:53 Cloudy 35 1.7 29 -1.7 78 78 NNW 22 35 29.89 1012 10 16 N/A
5:53 am 05:53 Cloudy 35 1.7 27 -2.8 72 72 NNW 33 54 29.93 1013 10 16 N/A
6:27 am 06:27 Partly Cloudy 34 1.1 27 -2.8 76 76 NNW 24 39 30.03 1017 10 16 N/A
6:53 am 06:53 Clear 33 0.6 26 -3.3 75 75 NNW 21 33 29.97 1015 10 16 N/A
7:53 am 07:53 Sunny 33 0.6 26 -3.3 75 75 NNW 22 35 29.99 1016 10 16 N/A
8:53 am 08:53 Mostly Cloudy 34 1.1 26 -3.3 73 73 NNW 18 30 30.03 1017 10 16 N/A
9:26 am 09:26 Partly Cloudy 36 2 25 -4 65 65 NW 18 30 30.09 1019 10 16 N/A
9:53 am 09:53 Mostly Sunny 36 2.2 25 -3.9 64 64 NNW 20 31 30.05 1018 10 16 N/A
10:53 am 10:53 Cloudy 35 1.7 24 -4.4 64 64 NW 23 37 30.07 1018 10 16 N/A
11:53 am 11:53 Mostly Cloudy 36 2.2 24 -4.4 62 62 NW 25 41 30.07 1018 10 16 N/A
12:53 pm 12:53 Mostly Cloudy 36 2.2 23 -5 59 59 NW 20 31 30.05 1018 10 16 N/A
1:53 pm 13:53 Cloudy 35 1.7 24 -4.4 64 64 NNW 23 37 30.06 1018 10 16 N/A
2:53 pm 14:53 Cloudy 34 1.1 27 -2.8 76 76 NNW 20 31 30.09 1019 10 16 N/A
3:53 pm 15:53 Mostly Cloudy 34 1.1 25 -3.9 70 70 NNW 18 30 30.11 1020 10 16 N/A
4:53 pm 16:53 Sunny 32 undefined 23 -5 69 69 NNW 15 24 30.14 1021 10 16 N/A
5:53 pm 17:53 Mostly Clear 31 -0.6 24 -4.4 76 76 NNW 13 20 30.16 1022 10 16 N/A
6:53 pm 18:53 Clear 29 -1.7 22 -5.6 75 75 NNW 13 20 30.19 1022 10 16 N/A
7:53 pm 19:53 Clear 27 -2.8 21 -6.1 78 78 NW 10 17 30.22 1023 10 16 N/A
8:53 pm 20:53 Clear 28 -2.2 21 -6.1 75 75 WNW 14 22 30.23 1024 10 16 N/A
9:53 pm 21:53 Clear 26 -3.3 21 -6.1 81 81 NW 8 13 30.24 1024 10 16 N/A
10:53 pm 22:53 Clear 23 -5 19 -7.2 85 85 NW 7 11 30.26 1025 10 16 N/A
11:53 pm 23:53 Clear 22 -5.6 18 -7.8 85 85 NW 5 7 30.27 1025 10 16 N/A

Powered by AerisWeather